Race Results for
Hart Park Cyclocross-November
Bakersfield, CA
(Event Information)
Cyclocross on 11/07/2009

Note: Ranking points are NOT upgrade points. An explanation of ranking points can be found here.


Men - Cat 1/2/3/4/5 - Youth

 Place Points NameCity, StateTime USAC #BibTeam
1Jameson Campaigne     37 Celo Pacific

Men - Cat 1/2/3/4/5 - Jr. - 10-14

 Place Points NameCity, StateTime USAC #BibTeam
1Alex Osburn   Fullerton, CA00:31:20 302895  583 Team Velocity
2Drew Campaigne   Oceanside, CA1 lap 285379  582 Celo Pacific

Men - Cat 1/2/3/4/5 - Jr. - 15-18

 Place Points NameCity, StateTime USAC #BibTeam
1Jesse Rogers   Valencia, CA00:26:30 302239  

Men - Cat 1/2/3/4/5 - Master - 45-99

 Place Points NameCity, StateTime USAC #BibTeam
1462.59James Pappe   Bakersfield, CA00:43:02 94207  230 Yokohl Ranch/Sierra Bicycle Werks
2474.22Charles Morris   Orange, CA00:42:02 25120  253 Bike Religion
3485.85Adam Austin   Los Angeles, CA00:43:18 251417  250 Montrose Bike Shop
4497.48Daniel Fahie   Orange, CA00:44:18 235334  223 Unattached
5509.11Robert Kmetz   Rancho Santa Margarita, CA00:44:53 19419  254 Sho-air/Sonance
6520.74David Gibson   Anaheim, CA00:46:10 77451  252 Team Velocity
7532.37Charlie Stone   Upland, CA00:47:13 220274  247 Southern California Velo
8544.00Chris Baldewin   Fullerton, CA00:47:33 121357  245 
9555.63George Fuentes   Bakersfield, CA1 lap 223842  246 Simply Fit/Action Sports
10567.26Gregory Freeman   Los Angeles, CA1 lap 264511  251 Major Motion Cycling Club
11578.89Leo Hinds   Bakersfield, CA1 lap 164052  248 Yokohl Ranch/Sierra Bicycle Werks

Men - Cat 1/2/3/4/5 - Master - 55-99

 Place Points NameCity, StateTime USAC #BibTeam
1442.03Jon Miller   Newbury Park, CA00:45:12 167489  428 Team Velosport Club
2460.53Kevin Ryan   Ventura, CA00:48:17 177958  443 Acme Racing
3479.03Robert Meeker   Ojai, CA00:48:36 23915  429 Montrose Cycling Club
4497.53Jonathan Livesay   Tujunga, CA00:49:08 21364  442 Montrose Bike Shop
5516.03Robert Llamas   Montrose, CA00:49:08 162224  432 Montrose Bike Shop
6534.53Roger Jorgensen   Chatsworth, CA00:50:53 249449  426 
7Richard Flores   00:51:05  441 
8571.53Hal Woodruff   Chino Hills, CA1 lap 38902  409 Unattached
9590.03Preston Riseling   Fullerton, CA2 laps 302515  407 Team Velocity

Men - Cat 4

 Place Points NameCity, StateTime USAC #BibTeam
1540.00Michael James   Templeton, CA00:31:11 17631  40 
2545.00Brandon Sincock   Los Angeles, CA00:32:20 302377  15 Bike Religion
3550.00Jeff Stanners   Redlands, CA00:32:27 33832  31 Don's Bikes
4555.00Jesus Ortega   Long Beach, CA00:33:29 242921  30 Celo Pacific
5560.00David Williams   Cypress, CA00:33:48 300925  29 Celo Pacific
6565.00Garrett Smith   Bakersfield, CA00:33:48 301410  32 
7Dustin McMillan   00:33:59  33 
8575.00Mark Colton   Santa Cruz, CA00:35:36 302872  38 Unattached
9580.00Tyler Cannon   San Luis Obispo, CA00:37:01 285904  36 SoCal Cross
10585.00Scottt Searway   Newbury Park, CA1 lap 204331  34 Team CICLE
11Gordon Grisel   1 lap  16 

Men - Cat 1/2/3

 Place Points NameCity, StateTime USAC #BibTeam
1292.33Brent Prenzlow   Carlsbad, CA01:00:04 28646  339 Celo Pacific/B&L
2310.55Gary Douville   Santa Barbara, CA01:00:05 101476  344 Platinum Performance Cycling Team
3328.77Jason First (1 - Cat2)   Laguna Beach, CA01:00:05 71635  338 Team Sho-Air
4346.99John Bailey   San Diego01:00:05 233503  343 Bailey Bikes
5365.21Jason Siegle   Solvang, CA01:01:55 193522  329 Bear Valley Bikes
6383.43John Behrens   San Diego, CA01:02:05 119862  337 Bailey Bikes
7401.65Morgan Ryan   Ventura, CA01:02:07 177959  335 Team CICLE
8419.87Anton Petrov   Costa Mesa, CA01:03:13 211354  345 Prolong Energy
9438.09Ted Willard   Aliso Viejo, CA01:03:54 218415  336 Team Bearclaw
10456.31Eric Christenson (1 - Cat3)   Rancho Santa Margarita, CA01:04:06 250477  346 Rock n Road Cyclery
11474.53David Sheek   Huntington Beach, CA01:05:50 250444  334 Rock n Road Cyclery
12492.75Eric Colton   Mountain View, CA01:05:50 284235  333 Team CICLE
13510.97James Walsh   Encinitas, CA1 lap 266213  341 Celo Pacific
14529.19Keith Newsome   Bakersfield, CA1 lap 79109  347 

Men - Cat 1/2/3 - Single Speed

 Place Points NameCity, StateTime USAC #BibTeam
1Brent Prenzlow   Carlsbad, CA00:42:18 28646  249 Celo Pacific/B&L
2Noah Holcomb   Aliso Viejo, CA00:44:05 128792  372 Cannondale Factory Racing
3Andrew Anderson   Corona Del Mar, CA00:44:05 252915  347 Bike Religion
4Miguel Sutter   Burbank, CA00:48:24 166968  348 PAA / RE/MAX

Men - Cat 1/2/3 - Master - 35-99

 Place Points NameCity, StateTime USAC #BibTeam
1488.54Garnet Vertican   Crestline, CA00:41:36 43191  561 GIANT
2500.86Tony Osburn (1 - Cat3)   Fullerton, CA00:41:53 158504  525 Team Velocity
3513.18Mike McMahon   Lake Forest, CA00:42:49 23731  516 Team Velocity
4525.50Jeff Sanford   Rancho Santa Margarita, CA00:43:07 108230  526 Celo Pacific
5537.82Samuel Ames   Bakersfield, CA00:44:26 1536  562 AIAGE Cycling Club
6550.14Michael Hutson   Bakersfield, CA00:44:56 179849  340 AIAGE Cycling Club
7562.46Jeff Herring (2 - Cat3)   Altadena, CA00:45:35 79728  509 Team CICLE
8574.78Daniel Kaukola (1 - Cat1)   Bakersfield, CA00:47:05 151072  563 Unattached

Men - Cat 3/4

 Place Points NameCity, StateTime USAC #BibTeam
1499.20James Walsh   Encinitas, CA42:18.00 266213  341 Celo Pacific
2503.98Griffith Vertican   Santa Ana, CA00:43:10 95837  343 Unattached
3508.76George Barthel   Sherman Oaks, CA00:43:10 221737  355 Team Helen's
4513.54Mark Campaigne   Oceanside, CA00:44:38 198871  342 Celo Pacific
5518.32Gregory Osborn   Los Angeles, CA00:44:56 198043  358 Joe Bar Racing
6523.10Adam Hensley   Bakersfield, CA00:45:17 264830  359 AIAGE Cycling Club
7527.88Joshua Kompa   Trabuco Canyon, CA00:45:24 239675  339 AIAGE
8532.66Christopher Woodruff   La Canada Flintridge, CA00:45:24 300382  348 Team CICLE
9537.44Brian Monroe   Bakersfield, CA00:46:09 226871  354 AIAGE Cycling Club
10542.22Michael Hutson   Bakersfield, CA00:46:24 179849  353 AIAGE Cycling Club
11547.00Christopher Bassett   Los Angeles, CA00:46:28 283133  325 Mafia Racing
12551.78Matt Lupello   Murrieta, CA00:47:08 278478  360 Unattached
13556.56Ryan Weeger   Huntington Beach, CA00:47:19 290709  352 Celo Pacific
14561.34Jim Budd   Atascadero, CA00:47:39 278338  340 Unattached
15566.12Michael Noel   Bakersfield, CA00:47:53 26189  353 AIAGE Cycling Club
16570.90Matthew Speer   Republic, MO00:49:01 196661  356 VCRC Factory Racing
17575.68Gregory Freeman   Los Angeles, CA00:50:12 264511  361 Major Motion Cycling Club
18580.46Tim Rosenstein (1 - Cat4)   Los Angeles, CA00:50:53 285007  357 Pasadena Athletic Assoc (PAA)
19585.24Garrett Smith (2 - Cat4)   Bakersfield, CA1 lap 301410  346 
20590.02John Zaninovich (3 - Cat4)   Bakersfield, CA1 lap 270489  338 

Men - Cat 3/4 - Single Speed

 Place Points NameCity, StateTime USAC #BibTeam
1Carl (Cubby) Cashen   Cambria, CA00:29:56 197335  775 The Great Chiweenies
2David Buckenberger   Morgan Hill, CA00:29:56 128734  778 Unattached
3Mark Campaigne   Oceanside, CA00:29:56 198871  744 Celo Pacific
4Jeffrey Goble   Foothill Ranch, CA00:30:05 192910  771 Sho-air/Sonance
5John Parson   Covington, LA00:30:05 236117  774 Unattached
6Scott Reeves   Aliso Viejo, CA00:32:27 284759  730 Sho-air/Sonance
7Tim Rosenstein (1 - Cat4)   Los Angeles, CA00:32:54 285007  777 Pasadena Athletic Assoc (PAA)
8Roger Jorgensen   Chatsworth, CA00:35:02 249449  776 

Men - Cat 3/4 - Master - 35-99

 Place Points NameCity, StateTime USAC #BibTeam
1527.17Brian Monroe   Bakersfield, CA45:28.00 226871  644 AIAGE Cycling Club
2530.33David Turner   Glendale, CA00:45:42 251308  601 PAA / RE/MAX
3533.49William Gillis   La Mirada, CA00:45:57 62440  635 Team Velocity
4536.65Robert Langone   Playa Del Rey, CA00:46:08 260632  640 Kahala LaGrange
5539.81Joshua Kepler   Marina Del Rey, CA00:46:13 283013  637 Westwood Superior Cycling Club
6542.97David Lawson   Carlsbad, CA00:46:13 42445  609 Celo Pacific
7546.13Michael Wilson   Orange, CA00:46:13 114946  617 Team Velocity
8549.29Michael Noel   Bakersfield, CA00:46:13 26189  642 AIAGE Cycling Club
9552.45Carl (Cubby) Cashen   Cambria, CA00:46:35 197335  638 The Great Chiweenies
10555.61James Sabelis   La Crescenta, CA00:47:01 290011  618 PAA / RE/MAX
11558.77Miguel Sutter   Burbank, CA00:47:21 166968  643 PAA / RE/MAX
12561.93Wade Hewitt   Santa Monica, CA00:47:21 258897  641 Kahala LaGrange
13565.09Al Morinaka   Los Angeles Ca00:48:17 232691  639 Team Velocity
14568.25Jeffrey Goble   Foothill Ranch, CA00:48:47 192910  645 Sho-air/Sonance
15571.41Jeff Stanners   Redlands, CA1 lap 33832  646 Don's Bikes
16574.57jason strzelczyk   Losangeles, CA1 lap 292504  636 Kahala LaGrange

Women - Cat 1/2/3/4/5 - Jr. - 10-14

 Place Points NameCity, StateTime USAC #BibTeam
1Kenyan Pappe   00:26:30  251 Action Sports
2565.00Tori Baldewin   Fullerton, CA00:28:00 286213  252 Team Velocity
3590.00Hannah Eckvahl   Alta Loma, CA00:31:20 270907  250 Velo Bella

Women - Cat 1/2/3/4/5 - Jr. - 15-18

 Place Points NameCity, StateTime USAC #BibTeam
1Hannah Finchamp   Altadena, CA00:26:30 301606  365 Team CICLE
2Christina Fuentes   Bakersfield, CA1 lap 254775  366 Simply Fit/Action Sports

Women - Cat 1/2/3/4/5 - Master - 35-99

 Place Points NameCity, StateTime USAC #BibTeam
1519.76Amy Hutner   Los Angeles, CA00:44:53 50234  433 Kahala LaGrange
2533.81Paula Rogers   Valencia, CA00:45:23 1856  448 Team CICLE
3547.86Maria Fahie   Orange, CA00:45:25 285480  410 Unattached
4561.91Carolyn Reeves   Aliso Viejo, CA00:49:40 301429  420 Team Velo Sport
5575.96Clare Campaigne   Oceanside, CA00:50:10 220175  455 Celo Pacific
6590.01Annette Padilla   San Diego, CA1 lap 155413  425 Celo Pacific

Women - Cat 1/2/3

 Place Points NameCity, StateTime USAC #BibTeam
1393.65Coryn Rivera   Tustin, CA00:46:28 207432  778 Proman Hit Squad
2416.89Kendall Ryan   Ventura, CA00:46:40 186919  740 NOW-MS Society
3440.13Dorothy Wong   Altadena, CA00:49:00 104462  703 Team CICLE
4463.37Alexis Ryan   Ventura, CA00:50:12 205156  743 Major Motion Cycling Club
5486.61Lisa Crowe   Redlands, CA1 lap 259708  776 Dons Bikes of Rialto
6509.85Megan Cordes   Cambria, CA1 lap 201341  763 The Great Chiweenies
7533.09Sarah Brodsky   Simi Valley, CA1 lap 272810  777 Bicycle Johns Serious Cycling
8556.33Amy Hutner (1 - Cat2)   Los Angeles, CA1 lap 50234  779 Kahala LaGrange
9579.57Annette Padilla   San Diego, CA2 laps 155413  723 Celo Pacific

Women - Cat 3/4

 Place Points NameCity, StateTime USAC #BibTeam
1504.65Sarah Brodsky   Simi Valley, CA00:43:02 272810  124 Bicycle Johns Serious Cycling
2514.77Lisa Crowe   Redlands, CA00:43:02 259708  127 Dons Bikes of Rialto
3524.89Hannah Finchamp   Altadena, CA00:43:45 301606  115 Team CICLE
4535.01Megan Cordes   Cambria, CA00:44:18 201341  125 The Great Chiweenies
5545.13Karissa Kompa   Trabuco Canyon, CA00:49:40 289301  122 
6Pam Awe   1 lap  123 
7565.37Lynn Ingram   Los Angeles, CA1 lap 286767  126 

Report missing or incorrect license numbers

Volkswagen
ShimanoSpyBonk BreakerSierra NevadaUSACDF
UCI USA Cycling is the official governing body for all disciplines of competitive cycling in the United States. The 501c3, membership-based organization aims both to achieve sustained success in international cycling competition and to grow competitive cycling in America while delivering an exceptional customer experience.
View Children's Online Privacy Protection Policy
US Olympic Committee